TimeAKST,TemperatureF,Dew PointF,Humidity,Sea Level PressureIn,VisibilityMPH,Wind Direction,Wind SpeedMPH,Gust SpeedMPH,PrecipitationIn,Events,Conditions,WindDirDegrees,DateUTC
12:53 AM,28.9,24.1,82,29.51,7.0,SSW,23.0,-,N/A,,Scattered Clouds,200,2013-02-11 09:53:00
1:53 AM,28.0,21.9,78,29.53,10.0,SSW,18.4,-,N/A,,Mostly Cloudy,200,2013-02-11 10:53:00
3:53 AM,25.0,18.0,75,29.57,10.0,South,13.8,-,N/A,,Clear,180,2013-02-11 12:53:00
4:53 AM,23.0,16.0,74,29.59,10.0,South,15.0,-,N/A,,Clear,180,2013-02-11 13:53:00
5:53 AM,21.0,15.1,78,29.60,10.0,South,16.1,-,N/A,,Clear,170,2013-02-11 14:53:00
6:53 AM,21.0,12.9,71,29.61,10.0,SSE,12.7,-,N/A,,Clear,160,2013-02-11 15:53:00
7:53 AM,21.0,12.0,68,29.62,10.0,SSE,13.8,-,N/A,,Clear,160,2013-02-11 16:53:00
8:53 AM,19.9,10.9,68,29.65,10.0,SSE,12.7,-,N/A,,Clear,160,2013-02-11 17:53:00
9:53 AM,19.9,10.9,68,29.67,10.0,South,10.4,-,N/A,,Unknown,170,2013-02-11 18:53:00
10:53 AM,21.9,12.0,66,29.69,10.0,South,13.8,-,N/A,,Clear,180,2013-02-11 19:53:00
11:53 AM,23.0,12.9,65,29.70,10.0,South,10.4,-,N/A,,Clear,180,2013-02-11 20:53:00
12:53 PM,25.0,15.1,66,29.71,10.0,South,13.8,-,N/A,,Clear,190,2013-02-11 21:53:00
1:53 PM,26.1,16.0,66,29.71,10.0,SSW,17.3,-,N/A,,Clear,200,2013-02-11 22:53:00
2:53 PM,26.1,16.0,66,29.73,10.0,South,12.7,-,N/A,,Clear,190,2013-02-11 23:53:00
3:53 PM,26.1,16.0,66,29.73,10.0,SSW,12.7,-,N/A,,Clear,210,2013-02-12 00:53:00
4:53 PM,25.0,15.1,66,29.74,10.0,SSE,4.6,-,N/A,,Clear,150,2013-02-12 01:53:00
5:53 PM,23.0,14.0,68,29.73,10.0,ESE,3.5,-,N/A,,Clear,120,2013-02-12 02:53:00
6:53 PM,12.0,7.0,80,29.74,10.0,ENE,4.6,-,N/A,,Clear,60,2013-02-12 03:53:00
7:53 PM,12.9,8.1,81,29.75,10.0,NNE,3.5,-,N/A,,Mostly Cloudy,20,2013-02-12 04:53:00
8:53 PM,16.0,10.9,81,29.74,10.0,North,-9999.0,-,N/A,,Overcast,0,2013-02-12 05:53:00
9:40 PM,19.4,12.2,74,29.73,7.0,NNE,6.9,-,0.00,Snow,Light Snow,20,2013-02-12 06:40:00
9:53 PM,19.9,15.1,81,29.74,5.0,North,6.9,-,0.00,Snow,Light Snow,10,2013-02-12 06:53:00
10:06 PM,21.2,15.8,80,29.73,8.0,North,6.9,-,0.00,,Overcast,10,2013-02-12 07:06:00
10:53 PM,21.9,16.0,78,29.73,10.0,North,11.5,-,0.00,,Overcast,10,2013-02-12 07:53:00
11:53 PM,23.0,19.9,88,29.75,10.0,NNW,5.8,-,N/A,,Overcast,340,2013-02-12 08:53:00